Jackpot

Texas Poker Multi Jackpot System

Kini Telah hadir Jackpot SUPER ROYAL FLUSH

Kini Telah hadir Jackpot 2000 (khusus table VIP keatas).

Ikutilah global jackpot yang tersedia di system kami, dengan system jackpot terbaru dan pertama di indonesia, anda dapat membeli jackpot dengan harga 100 rupiah saja dan menangkan hadiahnya hingga puluhan juta rupiah.

Jackpot bukanlah suatu keharusan untuk dibeli, namun kami memberikan suatu fitur tambahan untuk member tercinta dari www.hokipoker.pw.

Terdapat tiga pilihan harga jackpot yang bisa anda beli yaitu :100,500,1000 dan 2000(khusus table VIP Keatas) rupiah.

Hadiah dari Multi jackpot system www.hokipoker.pw

  1. full house x 10 harga jackpot yang anda beli.
      (contoh:anda membeli 1000 maka:1000 X10 = 10.000)
  2. four of kind x 250 harga jackpot yang anda beli
      (contoh:anda membeli 1000 maka:1000 X250 = 250.000)
  3. Straight flush x 1200
      (contoh:anda membeli 1000 maka:1000 X1200 = 1.200.000)
  4. Royal flush x 10000 harga jackpot yang anda beli
      (contoh:anda membeli 1000 maka:1000 X10000 = 10.000.000)
  5. SUPER ROYAL FLUSH x 30000 harga jackpot yang anda beli
      (contoh:anda membeli 1000 maka:1000 X30000 = 30.000.000)

Kondisi kartu

  1. full house adalah kondisi kartu dimana kartu anda dan kartu tengah dengan total 7 kartu bisa mendapatkan nilai 5 kartu dengan kombinasi 1 tris(three of kind) dan 1 pair, contoh 3 kartu 10 dan 2 kartu 5
  2. Four of kind adalah kondisi kartu dimana kartu anda dan kartu tengah dengan total 7 kartu bisa mendapatkan nilai 5 kartu dengan kombinasi 4 kartu yang sama jumlah dan 1 kartu apapun juga contoh anda mendapatkan 4 buah kartu angka 3 dan 1 kartu apapun.
  3. Staright flush adalah kondisi kartu dimana kartu anda dan kartu tengah dengan total 7 kartu bisa mendapatkan nilai 5 kartu dengan kombinasi seri / staright dengan kembang yang sama contoh : urutan kartu dari angka 5, 6, 7, 8 , 9 10 dengan kembang yg sama misalnya as hati
  4. Royal flush adalah kondisi kartu dimana kartu anda dan kartu tengah dengan total 7 kartu bisa mendapatkan nilai 5 kartu dengan kombinasi seri / staright dengan kembang yang sama tetapi kartu tersebut haruslah dimulai dari 10. contoh 10, Queen, Jack, King dan aces dengan kembang yang sama
  5. Super Royal flush adalah kondisi kartu dimana Kedua kartu anda digabung dengan 3 kartu pertama meja haruslah royal flush. contoh kartu anda 10,Queen kembang sama dan 3 kartu pertama meja adalah Jack, King dan aces dengan kembang yang sama

Demikian adalah penjelasan dari Multi Jackpot www.hokipoker.pw terima kasih dan selamat bermain salam hoki dari kami

Texas Poker Jackpot Winner

TOP SUPER ROYAL FLUSH
No.TanggalNamaPriceWin
123/01 23:32KHOEJUNSuper Royal flush30,000,000
223/01 13:16KITICSuper Royal flush3,000,000
322/01 21:21XYXGICUUBZSuper Royal flush15,000,000
422/01 17:27QQWILDANSuper Royal flush15,000,000
522/01 17:18AR121Super Royal flush15,000,000
TOP ROYAL FLUSH
No.TanggalNamaPriceWin
124/01 01:36BOBOBOYYRoyal flush5,000,000
224/01 01:08CYBER72Royal flush1,000,000
324/01 00:41D76TRJ5NJQRoyal flush1,000,000
424/01 00:28MUK1DYRoyal flush5,000,000
523/01 23:44ED9N8DSXSVRoyal flush20,000,000
TOP STRAIGHT FLUSH
No.TanggalNamaPriceWin
124/01 01:47ASHER1990Straight Flush120,000
224/01 01:47EENLUTAKStraight Flush120,000
324/01 01:40ND1TJPStraight Flush1,200,000
424/01 01:38MYR1NStraight Flush600,000
524/01 01:37Z6N6M7YPL9Straight Flush600,000
LATEST JACKPOT
No.TanggalNamaPriceWin
124/01 01:47PANGAREPFull House10,000
224/01 01:47KOKAY789Full House5,000
324/01 01:47ZACKY17Full House5,000
424/01 01:47ASHER1990Straight Flush120,000
524/01 01:47MENYENK31Full House5,000
624/01 01:47VIJAISINGFull House10,000
724/01 01:47YUKIPOPPYFull House5,000
824/01 01:47KARSUNFull House1,000
924/01 01:47AMAIIIFull House10,000
1024/01 01:47ADIRRRFour Of A Kind250,000
1124/01 01:47NESTA85Full House1,000
1224/01 01:47COUPER20Full House5,000
1324/01 01:47EENLUTAKStraight Flush120,000
1424/01 01:47MESSI856Full House1,000
1524/01 01:47MQ22Full House10,000
1624/01 01:47BOSS_GT8Full House5,000
1724/01 01:47TRANSVISIOFull House1,000
1824/01 01:47RONGGUR20Full House5,000
1924/01 01:47NAMEK45Full House5,000
2024/01 01:47ASDVRFull House5,000
2124/01 01:47DUAYFull House5,000
2224/01 01:47DGLIRFull House5,000
2324/01 01:47ALDO8Full House20,000
2424/01 01:47BP_7471Full House1,000
2524/01 01:47LIS3Full House10,000
2624/01 01:47ZIG213Full House20,000
2724/01 01:47MAGNET34Full House20,000
2824/01 01:47ANTIIYY7Full House1,000
2924/01 01:47CC1213Full House1,000
3024/01 01:47VINO1988Full House1,000
3124/01 01:47HARVIANFull House1,000
3224/01 01:47BABE0101Full House1,000
3324/01 01:47RUSPFull House1,000
3424/01 01:47LPUD160629Full House1,000
3524/01 01:47SENDOKIR99Full House1,000
3624/01 01:47SYGOJRFull House20,000
3724/01 01:47PEYOT12Full House1,000
3824/01 01:47AXEJPFull House5,000
3924/01 01:47PURE9999Full House5,000
4024/01 01:46WIRAH777Full House1,000
4124/01 01:46HANZ27Full House1,000
4224/01 01:46B0BY7777Full House5,000
4324/01 01:46RAJAM3J4Full House5,000
4424/01 01:46BLOSOFull House1,000
4524/01 01:46ODEO10Full House1,000
4624/01 01:46U0Z27H5KEAFull House5,000
4724/01 01:46CARLETTO27Full House5,000
4824/01 01:46MARKICOTFull House5,000
4924/01 01:46DANGOL50Full House1,000
5024/01 01:46ARIADYFull House1,000

Domino Multi Jackpot System

Ikutilah global jackpot yang tersedia di system kami, dengan system jackpot terbaru dan pertama di indonesia, anda dapat membeli jackpot dengan harga 100 rupiah saja dan menangkan hadiahnya hingga puluhan juta rupiah.

Jackpot bukanlah suatu keharusan untuk dibeli, namun kami memberikan suatu fitur tambahan untuk member tercinta dari www.hokipoker.pw.

Terdapat tiga pilihan harga jackpot yang bisa anda beli yaitu :100,500 dan 1000 rupiah.

Hadiah dari Multi jackpot system www.hokipoker.pw

  1. Murni Kecil x 50 harga jackpot yang anda beli.
      (contoh:anda membeli 1000 maka:1000 X 50 = 50.000)
  2. Murni Besar x 50 harga jackpot yang anda beli
      (contoh:anda membeli 1000 maka:1000 X 50 = 50.000)
  3. BALAK x 100 harga jackpot yang anda beli
      (contoh:anda membeli 1000 maka:1000 X 100 = 100.000)
  4. ENAM DEWA x 6666 harga jackpot yang anda beli
      (contoh:anda membeli 1000 maka:1000 X 6666 = 6.666.000)

Demikian adalah penjelasan dari Multi Jackpot www.hokipoker.pw terima kasih dan selamat bermain salam hoki dari kami

Domino Jackpot Winner

TOP ENAM DEWA
No.TanggalNamaPriceWin
124/01 00:16TEMPEKTUOmurni enam3,333,000
223/01 23:59TM7ZINATMJmurni enam6,666,000
323/01 23:50CROSSBACKmurni enam6,666,000
423/01 23:40RESTO23murni enam666,600
523/01 21:29PHO77murni enam6,666,000
TOP BALAK
No.TanggalNamaPriceWin
124/01 01:43SAXSP3TK73balak10,000
224/01 01:36JESPER06balak10,000
324/01 01:34LA88balak100,000
424/01 01:32BOTAX070balak100,000
524/01 01:30PITEN3019balak10,000
LATEST JACKPOT
No.TanggalNamaPriceWin
124/01 01:46BADASO11murni besar25,000
224/01 01:46LAMPUNG81murni kecil50,000
324/01 01:44PONEK88murni besar25,000
424/01 01:44CAIR1210murni besar25,000
524/01 01:43ANDY84murni besar25,000
624/01 01:43KRIWOELmurni kecil50,000
724/01 01:43SAXSP3TK73balak10,000
824/01 01:43JANUS88murni kecil5,000
924/01 01:43KAMSAIKmurni besar5,000
1024/01 01:41SEMENTARAmurni besar5,000
1124/01 01:41CAPIE89murni besar50,000
1224/01 01:40KITUT_JRmurni besar50,000
1324/01 01:39DEDHY93murni besar50,000
1424/01 01:39DEQUALmurni besar50,000
1524/01 01:38BNT08murni besar25,000
1624/01 01:38MOOD87murni besar25,000
1724/01 01:37RAMBEAELAHmurni besar5,000
1824/01 01:36JESPER06balak10,000
1924/01 01:36K412CH405murni besar50,000
2024/01 01:35PAPAGOOGLEmurni kecil50,000
2124/01 01:34MBJSJYmurni besar5,000
2224/01 01:34SUPRI221murni kecil25,000
2324/01 01:34SESWO123murni besar25,000
2424/01 01:34LA88balak100,000
2524/01 01:32QLESTYOQmurni besar5,000
2624/01 01:32BOTAX070balak100,000
2724/01 01:31CILIANG88murni kecil50,000
2824/01 01:31JESPER06murni besar5,000
2924/01 01:30PITEN3019balak10,000
3024/01 01:30BUENAmurni kecil25,000
3124/01 01:30TEMPEKTUOmurni besar25,000
3224/01 01:30BLACKZCXmurni kecil5,000
3324/01 01:30SETAN07murni kecil5,000
3424/01 01:30WD_ACHHbalak10,000
3524/01 01:29KIFLAN72murni kecil50,000
3624/01 01:28ANDY73murni besar50,000
3724/01 01:28EKAB474balak10,000
3824/01 01:27SESWO123murni kecil25,000
3924/01 01:27ROSSI995balak100,000
4024/01 01:25AANG44176murni kecil25,000
4124/01 01:25ERONmurni besar25,000
4224/01 01:23KRIWOELmurni kecil50,000
4324/01 01:22RR1357DSbalak50,000
4424/01 01:22KAMSAIKmurni kecil25,000
4524/01 01:22DXOSR88balak10,000
4624/01 01:22BOLANGBOYmurni besar5,000
4724/01 01:22MM86WNHX12murni besar50,000
4824/01 01:21KEONK46balak100,000
4924/01 01:21VKSSMImurni besar50,000
5024/01 01:21YOK212murni besar5,000

Ceme Multi Jackpot System

Jackpot dilihat dari gabungan kartu pemain dengan kartu bandar. Bandar harus membeli jackpot sebanyak jumlah player yang sedang duduk. Sebagai contoh bila terdapat 3 pemain duduk bermain, dan bandar memutuskan untuk membeli jackpot Rp 1.000, maka pada periode tersebut bandar akan membeli jackpot sebanyak 3xRp1.000 = Rp3.000.

Jackpot bukanlah suatu keharusan untuk dibeli, namun kami memberikan suatu fitur tambahan untuk member tercinta dari www.hokipoker.pw.

Terdapat tiga pilihan harga jackpot yang bisa anda beli yaitu :100,500 dan 1000 rupiah.

Hadiah dari Multi jackpot system www.hokipoker.pw

  1. Murni Kecil x 50 harga jackpot yang anda beli.
      (contoh:anda membeli 1000 maka:1000 X 50 = 50.000)
  2. Murni Besar x 50 harga jackpot yang anda beli
      (contoh:anda membeli 1000 maka:1000 X 50 = 50.000)
  3. BALAK x 200 harga jackpot yang anda beli
      (contoh:anda membeli 1000 maka:1000 X 200 = 200.000)
  4. ENAM DEWA x 6666 harga jackpot yang anda beli
      (contoh:anda membeli 1000 maka:1000 X 6666 = 6.666.000)

Demikian adalah penjelasan dari Multi Jackpot www.hokipoker.pw terima kasih dan selamat bermain salam hoki dari kami

Ceme Jackpot Winner

TOP ENAM DEWA
No.TanggalNamaPriceWin
124/01 01:42TLX992627murni enam6,666,000
224/01 01:33NIVANA4444murni enam6,666,000
324/01 01:33NOBERIC7murni enam3,333,000
424/01 01:17ANGGIAFmurni enam6,666,000
524/01 00:50NGOLU333murni enam3,333,000
TOP BALAK
No.TanggalNamaPriceWin
124/01 01:44THINTA08balak200,000
224/01 01:43RASCAL17balak20,000
324/01 01:41IMS303balak200,000
424/01 01:41HELLA21balak100,000
524/01 01:41GGN22balak200,000
LATEST JACKPOT
No.TanggalNamaPriceWin
124/01 01:47SITIZAINmurni kecil5,000
224/01 01:47BLUES378murni kecil5,000
324/01 01:47RAZKAL14murni kecil5,000
424/01 01:47TEMBUSJO88murni kecil25,000
524/01 01:46COKTENANmurni besar50,000
624/01 01:46CHIP800murni besar50,000
724/01 01:46TRI4WDmurni kecil50,000
824/01 01:45DARMAYASAmurni besar50,000
924/01 01:45B6404UWPmurni besar25,000
1024/01 01:45ARSYAH14murni besar5,000
1124/01 01:45NIVANA4444murni kecil50,000
1224/01 01:45P3NCERAH4Nmurni kecil50,000
1324/01 01:44CR787murni kecil25,000
1424/01 01:44ACOY10murni kecil50,000
1524/01 01:44RIDWAN4545murni kecil25,000
1624/01 01:44FRENDIBYmurni besar25,000
1724/01 01:44NENEX47murni besar25,000
1824/01 01:44THINTA08balak200,000
1924/01 01:43WENDI18murni besar50,000
2024/01 01:4399TERUSmurni besar50,000
2124/01 01:43AJABRA07murni kecil50,000
2224/01 01:43RAFLI45murni besar25,000
2324/01 01:43ERIERImurni kecil5,000
2424/01 01:43RASCAL17balak20,000
2524/01 01:42CLEH31murni kecil25,000
2624/01 01:42TLX992627murni enam6,666,000
2724/01 01:42FRENDIBYmurni kecil25,000
2824/01 01:42GANT3NG78murni kecil50,000
2924/01 01:42H4P10murni kecil5,000
3024/01 01:42MBIE3939murni kecil50,000
3124/01 01:41DKL111murni kecil50,000
3224/01 01:41IMS303balak200,000
3324/01 01:41HELLA21balak100,000
3424/01 01:41GGN22balak200,000
3524/01 01:41EAF7CF57murni kecil50,000
3624/01 01:40ACOY10murni kecil50,000
3724/01 01:40IAEX4MYGSTmurni kecil25,000
3824/01 01:40H4YWA84murni besar50,000
3924/01 01:40KOTORANMUmurni kecil50,000
4024/01 01:40KURAU212murni besar25,000
4124/01 01:40ARIEANSYAHmurni besar50,000
4224/01 01:40KORO86murni besar5,000
4324/01 01:40TDVIDV2QSEbalak200,000
4424/01 01:40PEJER4ASmurni kecil50,000
4524/01 01:39RAWANN11balak20,000
4624/01 01:39RHAR215murni kecil50,000
4724/01 01:39THIO10murni kecil50,000
4824/01 01:39THIO10murni kecil50,000
4924/01 01:39SARKAYU77murni besar50,000
5024/01 01:38ANJ0balak200,000